Location: Moscow
(55.7500°N, 37.5830°E)
Time: 05:46:03
(UTC+03:00)

Vanguard 1 - Pass Details

Date: 07 December 2021
Orbit: 652 x 3830 km, 34.2° (Epoch: 21 January)

Event Time Altitude Azimuth Distance (km) Brightness Sun altitude
Rises 23:58:15 0° 225° (SW) 7,159 - -56.6°
Reaches altitude 10° 00:03:20 10° 217° (SW) 6,453 - -56.7°
Maximum altitude 00:21:53 36° 162° (SSE) 5,073 - -56.8°
Exits shadow 00:37:04 16° 112° (ESE) 5,978 13.8 -56.7°
Drops below altitude 10° 00:40:00 10° 106° (ESE) 6,337 14.1 -56.7°
Sets 00:44:53 0° 99° (E) 7,025 14.4 -56.6°
